Theta_e
305 305 305 306 305 305 305 305 305 305 305 306 306 305 304 306 308 306 305 305 306 311 314 309 309 310 309 309 309 310 310 309 308 307 307 308 307 308 308 307 308 309 308 308 307 307 311 314 314 315 313 312 311 311 311 309 309 310 311 311 312 316 319 318 319 319 318 317 317 316 316 318 320 322 321 321 323 321 322 328 328 322 319 321 323 319 322
305 305 305 306 306 305 305 305 305 305 306 306 306 306 305 304 306 306 307 305 305 310 311 308 308 309 308 308 309 310 309 309 309 308 307 307 306 307 308 307 308 309 307 308 308 308 310 312 313 314 314 313 312 311 310 309 309 310 311 311 313 317 318 319 323 328 324 320 320 322 324 320 317 319 318 317 321 322 324 328 325 321 319 320 322 320 320
305 305 306 306 306 305 305 305 305 305 306 306 306 306 305 306 307 307 307 305 305 308 307 307 308 307 307 308 309 310 310 310 310 308 307 307 306 307 307 307 308 308 307 308 308 308 309 311 312 314 314 314 312 310 311 310 309 310 311 313 314 317 318 318 323 330 327 323 325 325 324 318 314 316 316 316 318 318 320 322 318 320 324 320 320 319 319
305 305 306 306 306 306 306 305 305 306 306 307 307 306 306 308 310 309 307 306 305 306 306 305 307 307 307 308 309 310 310 310 310 309 308 308 307 307 307 307 308 308 308 309 308 307 309 311 312 312 312 313 313 312 312 310 309 311 313 315 314 316 318 316 318 322 322 321 320 317 316 315 315 316 315 316 316 316 320 321 318 324 328 321 322 323 320
306 306 307 306 306 306 306 306 306 306 307 307 307 306 306 307 309 309 308 308 307 306 306 306 307 307 307 308 309 309 309 310 310 310 309 308 308 307 307 308 308 308 308 308 308 308 309 310 310 310 310 313 313 312 312 310 311 312 313 312 312 314 316 316 316 317 315 315 315 313 314 315 315 316 316 316 317 316 320 321 320 326 325 318 325 331 321
306 306 307 306 306 306 306 307 307 307 307 307 307 307 307 307 307 306 306 308 308 308 308 307 307 307 308 309 309 308 309 309 309 309 309 309 309 309 309 308 308 308 307 307 309 310 309 310 311 311 312 313 312 312 312 311 311 312 311 309 310 313 314 314 314 315 314 313 314 313 314 314 314 316 316 317 318 319 321 322 323 327 323 317 330 340 327
306 306 306 306 306 307 307 307 307 307 307 307 307 308 308 307 307 307 306 307 307 307 307 306 307 309 310 311 310 308 308 308 308 308 309 309 309 309 310 309 308 309 308 307 309 310 309 310 311 311 311 311 311 313 313 313 312 311 310 309 309 312 315 315 313 314 314 313 314 314 314 315 315 317 319 321 326 329 328 325 325 325 321 322 336 343 331
306 306 306 307 307 307 307 307 307 307 307 307 307 307 307 308 308 308 307 308 307 307 307 306 307 309 310 310 310 308 307 308 307 307 309 310 309 309 309 309 308 309 309 308 308 309 308 309 309 309 309 309 310 312 315 315 314 311 310 310 310 311 315 315 314 316 316 314 314 314 315 315 316 322 327 328 334 341 336 331 335 335 329 328 331 330 331
306 306 306 307 307 307 307 306 306 306 307 307 307 307 307 307 308 308 309 309 308 308 309 307 307 309 309 310 309 307 307 307 307 307 308 309 309 309 308 308 308 308 309 309 309 308 308 308 308 307 308 308 308 311 314 314 314 312 310 310 310 311 313 314 314 317 319 318 316 315 315 318 323 328 329 327 334 345 342 337 341 344 343 340 330 326 339
306 306 307 307 307 307 306 306 306 306 307 307 308 308 307 307 308 308 308 309 309 309 309 308 308 309 309 309 308 307 307 306 307 308 309 308 309 309 308 308 308 308 308 309 309 308 307 307 307 307 307 307 307 308 310 311 313 313 312 311 310 310 312 313 314 319 322 319 314 315 320 329 334 331 326 325 330 338 340 339 337 337 342 347 341 339 346
306 307 307 307 306 306 305 305 306 306 307 307 308 308 307 308 308 308 308 309 309 308 309 308 308 309 308 307 307 307 307 307 308 309 309 309 309 309 309 308 309 309 309 308 307 307 306 306 306 307 307 307 307 306 307 309 310 311 312 311 311 311 312 312 313 317 320 317 314 320 330 336 335 328 322 323 327 329 334 337 335 333 336 341 342 343 345
306 307 306 306 305 305 305 306 306 307 307 307 308 308 308 308 308 308 309 310 309 308 309 308 308 308 307 307 307 307 307 307 308 308 308 308 308 308 308 308 309 309 309 307 306 306 307 307 307 307 307 306 307 307 307 308 308 310 311 311 310 311 312 312 313 316 318 317 320 332 339 334 329 323 319 322 324 324 328 334 333 329 332 334 335 338 340
306 306 306 306 306 306 306 307 307 307 307 307 308 308 308 308 308 309 309 309 309 309 309 308 308 307 308 307 307 307 307 307 307 307 308 308 308 308 307 307 308 308 307 306 306 307 308 309 309 309 309 309 309 309 309 308 308 309 310 310 310 311 312 313 314 316 318 319 324 335 339 332 327 325 321 321 322 322 326 335 334 327 328 331 332 334 335
306 306 306 306 307 307 307 307 307 307 307 308 308 308 308 308 308 308 308 309 310 309 308 309 309 308 308 308 308 308 308 308 308 308 308 308 309 308 308 307 308 307 306 306 308 309 310 311 310 312 313 314 314 314 313 311 310 309 310 310 310 310 311 312 314 317 319 319 322 329 334 332 329 327 321 318 320 320 323 334 336 327 325 328 331 333 331
306 306 306 307 307 307 308 308 308 308 308 308 308 308 308 308 308 308 308 308 309 309 309 309 309 308 308 308 308 309 309 308 309 309 308 309 309 309 308 307 306 306 306 307 309 311 311 310 310 313 315 315 315 316 315 314 313 311 310 311 311 310 311 312 314 317 318 319 323 329 337 336 330 324 319 316 320 320 320 329 335 330 326 326 329 330 329
306 307 307 307 307 308 308 308 308 308 308 308 308 308 309 308 308 308 308 308 309 310 309 308 308 308 308 308 308 309 309 309 309 309 308 309 309 308 307 306 306 307 308 310 312 312 311 311 312 312 314 314 315 315 316 317 316 313 312 312 311 311 311 312 313 315 315 318 323 330 335 333 324 319 317 318 321 321 323 332 336 330 326 326 327 327 325
306 307 307 307 308 308 308 308 308 308 308 308 309 309 309 309 308 309 308 308 308 310 309 307 307 308 309 309 309 309 309 310 310 310 309 309 309 309 308 307 308 308 308 311 313 312 311 312 312 312 314 314 313 314 316 317 317 316 314 313 312 312 313 314 314 315 315 317 322 326 328 325 319 317 318 319 320 322 329 339 337 329 326 326 325 324 323
306 307 307 308 308 307 308 308 308 309 309 309 309 309 308 309 308 308 309 308 309 310 310 308 308 309 309 309 309 308 308 309 310 310 309 309 310 310 309 308 309 309 308 310 312 311 311 312 312 312 313 313 312 314 316 317 317 317 316 316 315 315 316 316 316 316 318 319 320 323 325 321 318 319 319 319 322 327 333 336 331 326 326 326 324 323 322
307 307 307 307 307 307 308 308 308 309 309 309 309 308 309 309 309 308 309 309 309 311 310 308 308 309 308 308 308 308 308 309 310 310 309 309 310 309 308 308 308 309 309 310 310 311 311 312 312 312 313 313 312 313 315 315 316 316 316 317 318 317 318 319 317 318 321 322 322 325 325 319 317 319 319 319 325 330 330 327 325 323 324 324 324 323 321
307 307 307 307 307 307 308 308 309 309 309 309 309 308 308 309 309 309 309 309 309 310 309 308 308 308 308 308 309 309 308 309 309 309 309 309 309 308 309 310 309 309 310 310 310 311 311 312 312 312 312 312 312 312 314 315 314 314 315 316 316 316 318 319 318 318 321 323 324 326 324 318 317 318 318 319 321 322 320 320 319 319 319 320 323 323 321
307 307 307 307 308 308 308 308 308 308 308 308 308 308 308 309 309 309 309 309 309 310 309 307 308 308 308 308 308 308 308 308 308 308 309 310 310 309 310 310 309 309 310 311 310 311 311 311 311 311 311 312 312 312 313 314 314 314 314 315 314 314 316 318 317 316 318 321 321 321 319 316 316 318 318 317 317 316 315 316 315 315 315 317 319 321 321
307 307 307 308 308 308 308 308 308 308 308 308 308 308 308 309 308 308 309 309 309 309 309 308 308 308 308 308 308 308 308 308 307 307 308 309 310 310 310 310 310 310 311 310 310 310 310 310 311 311 311 311 312 312 313 314 314 313 313 314 314 313 314 316 316 314 315 319 319 317 315 315 316 317 317 315 314 313 313 314 314 313 314 316 316 317 319
307 307 307 308 308 308 308 308 308 308 308 307 308 308 308 308 308 308 309 309 308 309 308 307 308 309 309 308 309 308 308 308 308 307 306 307 309 311 310 310 311 311 311 310 309 310 310 310 311 311 311 311 311 312 313 314 314 313 313 312 313 313 313 315 315 312 313 317 317 314 312 312 313 315 317 315 312 311 312 313 314 313 313 315 315 315 317
307 307 307 308 308 308 308 308 308 308 307 307 308 308 308 308 307 307 308 309 308 310 309 308 309 311 310 308 307 308 308 308 308 308 307 307 308 311 311 310 309 310 310 309 308 308 309 310 311 311 311 311 311 312 313 313 313 313 313 312 312 312 313 313 311 311 314 318 316 311 310 310 311 314 316 315 313 312 311 312 313 313 313 314 314 314 316
307 307 308 308 308 308 308 308 308 308 307 307 308 308 308 308 308 307 308 309 309 309 310 311 312 310 308 308 308 308 309 309 309 309 308 307 307 309 310 309 308 308 308 308 308 308 308 310 311 312 312 311 312 311 312 312 312 312 312 311 311 312 313 312 310 311 313 314 311 308 309 312 314 315 316 315 313 312 311 311 311 312 312 312 313 314 315
307 308 308 308 308 308 309 309 309 309 308 308 308 308 308 308 308 308 308 309 308 307 308 313 314 309 306 309 311 310 309 309 308 309 308 308 307 307 307 307 307 307 308 308 309 309 309 310 311 312 311 312 312 311 311 312 312 312 311 310 310 311 311 311 310 310 311 311 309 308 310 313 315 314 313 312 312 311 311 310 310 310 310 311 313 313 314
308 308 309 309 309 310 311 311 311 310 309 309 308 308 308 308 308 309 308 308 308 309 310 313 314 309 307 309 311 310 310 309 309 309 309 308 308 307 307 307 308 309 309 310 310 310 311 311 310 310 311 311 311 312 312 311 311 311 310 309 309 310 311 310 310 310 310 310 308 308 309 311 311 310 309 310 310 310 310 310 309 309 310 311 312 312 313
310 310 311 310 311 312 313 312 312 311 311 310 310 308 308 308 308 309 309 308 308 310 310 310 310 309 309 311 312 311 310 309 308 309 309 308 308 308 308 308 310 311 312 311 311 310 311 310 310 310 311 311 311 311 311 311 311 311 310 310 309 310 310 310 310 311 310 309 308 307 308 308 308 308 308 309 310 310 309 309 310 310 310 311 312 312 312
312 312 312 311 311 312 312 312 312 312 312 312 312 310 311 311 310 309 310 310 309 309 308 308 310 311 310 311 312 311 310 309 308 308 309 309 309 309 310 310 311 312 312 312 312 311 310 310 310 310 311 311 311 311 311 311 311 311 310 309 309 309 309 309 310 310 309 308 307 307 308 308 307 307 307 307 309 310 310 310 310 310 310 311 312 312 312
313 313 312 312 311 312 312 312 313 313 313 313 312 311 312 313 312 311 310 310 310 309 307 310 314 313 310 310 312 311 311 310 310 310 310 310 310 310 311 311 311 311 313 313 311 311 310 310 310 311 311 311 311 311 311 311 311 310 310 309 309 308 308 308 309 309 309 308 308 308 308 308 307 307 307 307 308 309 310 311 311 312 312 312 312 312 312
314 313 313 313 312 312 312 312 313 313 312 312 312 312 313 313 312 311 310 310 310 309 307 308 311 311 311 313 313 312 311 311 311 312 312 311 311 311 310 310 311 312 313 313 312 311 311 309 310 312 312 310 310 311 310 310 310 310 309 309 309 309 308 308 308 309 308 308 308 308 308 307 307 308 308 308 308 309 310 311 312 312 313 313 313 313 314
315 313 313 313 313 312 312 313 313 313 312 311 311 312 312 311 310 310 310 310 310 308 308 310 313 313 314 314 312 312 312 312 311 312 312 312 312 311 310 311 312 311 311 312 312 311 310 310 311 312 311 310 310 311 310 309 309 309 309 309 309 308 308 308 308 307 307 307 307 308 308 307 307 307 308 307 308 309 310 311 311 311 312 313 313 313 314
317 314 313 314 313 313 312 313 313 313 312 311 311 311 310 309 309 310 310 310 310 307 307 310 314 314 314 312 310 311 314 314 313 313 313 312 313 313 312 312 313 312 311 311 311 310 310 311 312 312 311 310 310 310 309 309 309 310 309 309 309 308 308 307 307 307 307 306 307 308 308 307 306 307 307 307 308 309 310 312 312 312 311 312 312 312 312
320 317 314 313 313 313 313 313 313 313 312 311 312 312 310 308 309 309 309 310 310 309 308 309 313 315 316 315 314 313 314 315 316 316 315 313 312 312 314 313 314 314 312 310 310 310 311 310 311 311 311 311 310 310 310 309 309 310 309 309 308 308 307 307 307 307 306 306 306 307 307 306 306 306 307 307 308 309 310 311 313 313 312 312 312 311 311
320 319 315 313 312 313 313 312 312 312 311 312 313 313 310 308 308 309 310 310 310 311 311 310 311 316 319 321 319 315 314 315 316 315 314 313 311 311 313 314 315 315 312 310 310 311 311 310 310 311 311 310 309 310 310 309 309 309 309 309 308 308 307 307 307 306 306 306 306 306 305 305 305 306 306 306 307 307 308 309 311 312 312 312 312 311 311
319 319 316 313 312 312 312 312 312 313 313 314 314 311 309 309 309 309 309 309 310 312 313 312 312 315 319 320 319 315 314 315 316 313 312 313 312 311 312 314 314 312 310 311 313 313 312 311 311 312 311 309 310 311 310 309 309 309 309 309 308 308 307 307 307 306 306 305 306 306 305 305 305 305 305 306 306 307 307 308 309 311 312 312 312 311 311
317 317 315 312 312 313 314 313 313 314 314 314 312 309 309 309 310 309 309 309 309 309 310 312 315 317 316 317 317 316 314 315 316 316 315 314 313 311 311 313 313 311 311 314 315 314 313 312 312 312 311 310 310 311 310 309 309 309 308 308 308 308 307 307 306 306 305 305 305 305 305 305 305 305 305 305 305 306 307 308 309 310 312 313 312 311 311
316 315 313 312 315 320 321 318 315 314 313 311 310 311 310 309 310 312 311 310 312 311 307 310 317 318 314 315 317 315 314 315 317 317 316 315 314 313 312 312 312 312 313 315 313 310 311 313 312 311 312 311 311 310 310 309 309 309 308 308 308 308 307 306 306 306 306 306 306 306 305 305 305 305 304 305 305 305 306 308 308 310 312 313 313 312 312
315 313 313 315 320 323 321 317 313 312 312 311 313 315 314 311 314 319 315 311 313 313 310 313 318 317 315 318 319 315 314 316 317 317 316 316 316 316 315 315 313 312 314 315 311 309 311 312 311 310 312 312 311 310 309 308 309 309 308 307 307 307 307 306 306 306 306 306 306 305 305 305 305 305 304 304 304 305 306 307 309 312 313 314 313 313 312
316 315 315 318 321 318 315 312 311 311 313 314 314 316 316 315 319 322 319 316 319 318 314 315 319 316 315 318 319 317 315 316 316 317 318 317 314 314 315 315 313 313 316 317 312 311 313 314 311 310 311 312 311 310 309 308 309 308 307 306 307 307 307 306 306 306 305 305 305 305 305 305 305 304 304 304 304 304 305 306 309 313 315 315 314 313 313
317 318 318 320 318 314 311 310 311 312 315 317 318 320 320 317 317 318 318 321 325 323 317 318 321 320 317 317 318 318 318 316 315 317 318 316 313 313 315 314 312 313 317 317 312 312 315 314 311 311 312 311 310 310 309 309 308 308 306 306 307 308 307 306 305 305 305 305 305 305 305 305 305 304 304 304 303 304 305 306 308 312 314 315 314 314 313
315 316 316 316 313 311 310 312 313 314 316 318 321 323 322 318 318 319 319 319 320 320 319 320 322 323 321 318 318 319 319 316 315 317 318 317 315 314 314 314 312 313 316 316 314 314 315 312 310 311 312 311 310 309 309 309 308 307 307 307 307 308 307 305 305 305 305 305 305 305 304 304 305 304 304 304 303 303 304 305 307 309 312 314 314 313 312
314 314 314 315 313 312 314 315 315 316 319 320 318 317 318 321 321 321 320 320 321 322 322 320 318 317 317 316 315 317 316 315 317 319 319 318 315 313 313 314 313 311 313 315 315 315 314 312 311 312 311 310 310 310 309 308 307 306 306 306 306 307 306 305 305 305 305 304 305 305 304 304 304 304 304 303 303 303 304 304 305 307 309 311 313 313 314
314 312 312 315 317 317 317 317 315 315 318 320 318 316 317 321 321 319 318 321 323 322 321 319 317 317 318 317 317 319 318 317 317 318 316 316 317 315 314 315 315 313 312 314 315 314 312 311 311 311 310 310 310 309 309 308 307 306 307 307 306 306 306 305 304 304 304 304 304 304 304 304 304 304 303 303 303 303 303 303 304 305 306 308 310 312 313
319 316 315 316 317 316 315 315 315 314 315 317 319 319 318 319 320 319 319 321 321 319 318 317 316 317 319 318 316 318 320 319 318 317 316 316 317 316 313 315 317 316 313 315 315 314 311 311 311 310 310 310 310 309 309 308 305 305 307 309 308 306 306 306 305 304 304 304 304 303 303 303 303 304 303 303 303 303 303 302 302 303 304 305 307 308 310
321 321 318 317 316 315 313 314 317 318 317 319 323 324 322 320 321 320 318 318 319 317 315 315 316 320 322 319 316 317 320 320 320 320 318 315 315 315 314 315 316 316 314 314 314 313 312 311 310 310 310 310 310 309 309 307 305 305 307 310 310 308 306 305 305 305 305 304 304 303 303 303 303 303 303 303 303 303 302 302 302 302 303 304 305 306 307
317 317 317 317 318 315 313 316 322 322 320 322 326 327 322 319 319 318 316 316 316 315 314 315 316 318 319 318 316 316 318 319 320 320 318 314 314 315 316 315 315 314 312 312 312 313 312 312 311 311 311 310 310 310 308 307 306 306 308 309 311 310 307 306 305 305 305 305 304 303 303 303 302 303 303 303 303 302 302 301 301 301 302 303 303 304 305
317 315 314 318 320 317 317 321 324 321 319 322 326 324 319 315 315 317 318 318 317 316 315 316 317 315 315 317 318 318 317 317 316 316 315 315 316 316 315 314 313 312 312 312 313 313 313 313 312 312 311 310 310 311 309 306 306 307 309 309 310 309 308 307 307 306 304 304 304 304 303 303 302 302 303 303 302 302 302 301 301 301 301 302 302 303 304
316 313 313 317 321 321 321 319 317 318 322 325 323 321 319 318 318 320 320 318 318 317 315 315 317 316 314 315 318 318 316 315 315 314 315 316 317 315 313 312 312 312 312 313 314 314 314 314 313 313 312 310 310 311 309 307 306 307 307 307 306 306 305 306 306 305 304 304 304 304 304 303 303 302 303 303 302 302 301 301 301 301 301 301 301 301 302
311 312 317 318 319 320 320 315 313 319 326 326 323 322 322 321 322 320 316 315 321 324 320 318 319 319 315 315 316 316 314 315 317 318 317 317 316 315 313 313 313 313 314 315 315 315 314 314 313 313 311 311 311 311 309 308 306 305 303 303 304 303 303 304 304 304 304 305 305 304 304 304 303 303 302 303 302 302 301 301 301 300 300 301 301 301 301
312 315 319 319 318 321 322 318 316 319 321 321 324 326 324 322 325 321 314 313 322 326 319 315 316 318 317 315 315 313 312 315 318 318 316 316 316 316 315 314 315 316 316 316 314 314 313 313 313 313 312 311 312 311 308 305 304 302 301 302 303 303 303 303 302 302 303 305 305 304 303 304 303 303 302 302 302 302 302 301 301 300 300 300 300 300 300
317 317 319 319 320 322 320 317 318 320 320 320 324 324 321 322 326 322 315 315 320 318 313 314 318 317 314 312 312 312 312 315 316 314 313 314 315 316 316 316 317 317 316 315 315 314 314 314 313 312 311 312 312 309 305 303 302 301 301 301 302 302 302 302 302 301 301 302 304 304 304 303 303 303 302 302 302 302 302 302 301 301 300 300 300 300 300
Wind_Speed
22 22 22 23 25 26 27 27 26 28 30 31 30 18 3 3 2 5 23 31 14 6 5 4 4 3 4 5 4 5 4 4 5 5 5 3 1 1 1 1 1 1 1 1 0 1 1 2 2 1 2 2 1 3 5 5 6 5 3 4 5 3 1 1 4 5 7 14 14 8 5 3 2 3 3 3 3 4 6 5 4 4 4 3 4 8 8
22 22 22 22 23 24 25 24 24 25 26 27 25 11 1 3 3 3 18 28 16 8 3 3 3 4 6 6 5 5 3 4 5 4 5 4 2 1 1 0 1 1 1 1 1 1 0 1 2 1 2 1 0 2 4 5 5 4 4 4 4 3 1 1 2 2 4 7 5 1 3 4 2 4 5 4 6 6 3 2 3 3 7 8 6 8 8
22 22 21 21 22 23 23 22 22 22 23 23 18 7 2 4 1 3 9 21 17 7 2 3 2 5 7 5 6 6 4 3 5 4 3 4 3 1 1 2 2 2 3 2 1 1 2 2 2 1 1 2 1 1 2 5 6 6 9 9 5 3 2 1 2 3 4 5 3 2 2 5 4 6 8 7 7 7 5 2 3 5 7 8 7 9 8
21 21 21 21 21 21 20 19 20 21 21 22 16 5 2 2 2 2 4 8 8 3 2 3 2 3 6 4 4 6 6 4 5 4 4 6 6 2 2 4 3 4 6 4 3 3 2 3 2 2 3 2 2 2 2 4 8 10 11 10 5 3 3 3 4 5 5 4 3 3 3 5 7 10 13 12 8 6 4 3 5 6 4 5 7 10 8
21 20 20 21 21 19 18 18 19 19 19 21 15 4 0 1 1 2 3 2 3 3 3 4 3 2 3 2 3 6 6 5 5 4 4 6 7 3 1 4 4 3 5 3 3 4 2 3 3 4 5 3 2 3 4 5 8 8 8 8 4 2 3 4 6 7 9 8 9 8 6 7 10 11 13 14 12 8 5 6 6 3 5 7 8 5 7
20 20 20 20 19 17 18 18 18 17 18 19 13 2 0 1 1 0 1 1 2 2 3 4 4 4 3 1 3 6 7 6 5 4 3 4 5 3 1 3 4 3 3 2 3 4 3 3 3 4 3 3 3 3 3 4 4 3 4 7 4 2 3 3 4 7 10 10 11 12 9 9 10 10 12 15 14 11 9 9 8 4 6 9 6 5 9
20 20 19 19 17 17 18 18 16 16 16 16 9 2 1 2 1 0 1 1 1 1 4 4 4 5 4 2 3 5 6 6 5 3 4 4 3 3 2 5 7 6 4 2 2 3 3 4 4 2 3 4 3 3 2 2 1 1 3 5 3 2 4 4 4 6 10 11 12 12 9 7 8 9 10 11 13 13 11 11 10 10 10 8 6 9 10
19 19 18 18 17 17 17 16 15 15 15 11 5 2 1 1 0 1 1 1 2 3 2 2 2 3 3 1 2 4 6 6 6 4 4 4 2 3 5 8 9 9 7 3 4 6 5 6 6 3 5 5 3 3 3 2 1 1 0 3 3 3 3 2 1 3 8 9 8 7 7 7 7 6 6 9 11 8 6 7 6 6 8 9 8 10 8
19 18 17 17 17 17 17 15 13 14 13 8 3 1 1 1 2 1 1 2 2 1 1 0 1 3 1 0 3 5 5 6 8 7 4 4 3 4 7 10 9 8 7 5 8 9 7 8 9 8 8 8 6 4 3 4 3 3 2 1 3 3 3 3 2 1 5 5 4 4 6 6 6 2 8 12 11 8 3 1 4 3 4 5 6 6 5
18 18 17 17 18 17 17 14 12 13 12 7 2 1 1 2 2 1 1 2 2 1 0 0 1 2 2 3 5 4 4 6 7 6 2 2 3 4 6 8 7 6 7 8 8 8 7 10 12 10 11 12 10 8 8 7 6 4 3 3 3 4 3 2 1 1 4 5 4 7 5 4 4 1 6 8 8 8 6 6 10 8 3 2 2 4 5
18 18 18 18 17 15 13 12 11 11 10 7 4 4 4 4 3 1 1 2 1 1 0 1 1 2 4 6 6 5 6 8 6 4 3 3 5 5 5 7 6 4 6 7 7 8 11 13 13 11 12 13 13 12 12 12 10 7 5 4 3 5 5 3 0 1 4 6 6 5 4 4 4 3 5 7 6 8 8 8 12 13 8 5 4 5 8
18 18 18 17 15 12 11 11 10 8 8 8 6 7 8 7 5 2 1 2 1 1 1 2 3 4 6 7 6 6 7 8 7 7 7 7 8 6 4 5 4 4 6 8 10 11 11 11 11 11 11 13 13 14 14 14 13 10 7 6 4 6 6 3 1 2 4 6 4 3 6 4 5 7 8 9 4 6 8 7 14 18 16 13 12 11 12
19 17 16 15 13 11 11 10 10 8 8 8 8 9 9 7 5 2 2 1 1 1 2 4 4 6 7 7 6 7 8 8 8 8 7 6 7 7 4 2 3 5 8 11 12 9 7 8 7 7 7 7 8 11 13 14 13 11 9 9 7 6 5 3 2 3 2 3 2 4 4 2 4 5 9 10 5 7 10 7 14 19 17 15 15 13 14
17 16 15 14 13 12 11 11 10 10 9 9 9 10 10 8 5 2 1 1 2 2 2 3 4 4 6 6 6 7 7 7 6 6 5 4 5 6 5 3 6 10 9 8 7 4 3 4 4 4 3 2 3 5 8 11 12 12 12 11 9 8 6 2 2 2 2 2 3 2 2 2 3 3 5 7 5 8 8 3 8 14 15 14 14 14 15
16 16 15 13 12 12 12 11 11 10 9 8 9 10 10 8 6 4 1 1 2 2 2 2 2 4 5 6 5 6 6 4 4 5 5 3 4 5 5 6 11 13 7 3 2 2 1 2 3 4 3 1 3 3 4 5 7 10 11 10 10 9 6 2 1 1 1 2 3 1 2 3 1 2 6 8 8 9 8 3 2 10 15 16 14 14 16
16 15 14 13 12 13 13 12 10 10 9 8 8 9 9 7 5 5 3 1 1 2 2 3 2 3 5 5 5 5 4 3 3 4 4 3 3 5 6 7 11 10 4 1 1 1 2 3 3 4 3 2 3 2 1 2 5 8 9 11 11 11 7 3 2 2 2 2 2 1 2 3 1 8 12 13 11 8 5 4 2 10 15 16 15 15 16
15 15 14 14 14 13 12 11 10 10 9 8 7 8 8 6 5 6 4 2 1 2 2 2 2 2 3 3 4 3 2 2 3 3 3 3 4 6 7 7 8 6 4 3 2 1 2 3 4 4 3 3 3 3 2 1 5 7 9 11 10 8 6 4 4 5 4 4 2 2 1 1 6 12 14 15 12 5 3 3 3 9 12 13 14 15 16
15 14 14 14 14 12 11 10 10 9 8 7 6 6 7 6 5 5 4 1 1 2 3 2 3 2 2 2 3 3 2 2 2 1 3 3 2 3 5 5 5 4 4 4 3 2 2 3 3 4 3 2 3 3 3 2 3 4 6 7 6 4 4 5 6 5 5 5 2 1 0 2 9 13 14 15 10 2 3 2 2 6 10 11 12 13 14
15 14 14 13 12 11 10 10 9 8 8 7 6 5 4 4 3 5 4 2 1 2 3 1 3 3 2 1 2 3 3 3 2 2 3 3 2 5 5 2 2 3 3 3 3 2 3 3 3 3 3 3 4 4 4 3 3 3 3 4 3 1 1 2 3 2 3 2 1 0 2 3 12 13 12 11 5 3 3 4 3 7 11 11 11 12 13
15 14 14 12 11 10 9 9 9 8 8 6 4 4 3 3 3 4 5 3 1 2 4 4 5 6 5 2 3 3 2 2 2 2 2 2 3 5 4 1 2 3 3 3 3 3 3 3 3 2 3 4 4 4 4 3 4 6 3 3 3 3 1 1 1 2 2 0 1 1 1 5 14 13 8 8 7 3 3 5 6 9 12 12 11 11 11
15 14 12 11 10 9 8 9 9 8 7 5 4 3 3 3 2 1 3 4 2 1 3 4 5 8 9 8 10 10 7 5 4 2 2 3 3 2 2 1 2 2 2 2 3 2 2 3 4 3 3 3 3 4 6 3 4 8 7 3 4 6 3 1 2 3 2 2 3 3 2 5 11 9 5 6 6 4 5 7 7 8 9 10 10 11 12
14 13 12 10 10 9 9 9 9 8 6 5 4 2 1 2 2 3 1 4 5 5 7 10 12 16 18 17 17 16 15 15 13 8 4 2 2 1 1 2 2 1 0 1 2 2 2 2 3 4 3 3 3 4 5 3 3 7 8 4 4 7 6 4 2 2 3 2 3 3 2 4 7 5 4 5 6 7 8 8 6 7 8 8 9 12 14
13 13 12 10 9 9 9 8 8 7 5 4 4 3 2 3 3 2 2 3 4 6 10 12 13 14 14 11 9 10 11 13 15 15 10 4 2 2 2 1 2 2 1 0 1 3 3 2 2 3 3 3 4 4 3 4 4 5 7 5 4 6 8 5 3 4 4 0 4 4 5 7 7 4 2 5 6 7 9 9 7 7 8 8 9 11 13
13 12 12 11 9 8 7 6 6 5 5 4 4 3 2 2 2 1 0 1 2 3 4 5 4 4 5 7 9 11 9 8 10 13 14 10 3 2 1 2 1 0 2 3 3 2 2 2 1 1 2 3 4 4 3 4 5 5 5 4 3 6 8 6 5 7 5 1 5 8 11 11 8 3 2 5 6 7 8 8 7 7 8 9 9 11 13
13 12 11 10 9 7 6 5 4 4 3 3 4 4 2 1 1 1 1 0 1 1 2 3 2 3 6 10 10 9 8 6 5 7 12 15 12 6 3 3 2 3 5 4 2 2 2 2 1 1 3 3 3 4 4 3 4 5 5 5 5 6 7 7 7 8 5 1 6 12 12 8 2 3 3 5 7 10 11 10 9 8 8 9 9 10 10
13 12 10 9 7 5 4 4 4 4 2 2 5 6 4 3 3 3 3 1 1 1 1 3 4 5 10 11 9 8 6 5 5 6 10 14 16 14 9 8 8 7 6 3 1 2 2 1 1 1 3 3 2 3 3 3 3 3 5 7 6 6 6 7 8 7 4 2 8 14 11 6 7 7 7 9 9 11 13 14 13 12 10 9 9 9 9
12 10 9 7 4 3 3 4 5 5 4 2 3 5 6 6 6 5 4 2 2 1 2 2 4 8 11 9 11 14 8 4 5 6 9 11 13 14 11 7 6 5 5 3 1 0 1 1 1 2 2 2 2 2 2 2 2 2 4 7 8 6 7 8 7 6 4 5 10 12 8 5 6 9 11 12 11 12 13 15 15 13 11 9 9 10 10
11 9 7 4 2 2 3 4 4 5 5 4 2 2 4 5 6 5 4 3 2 1 1 2 5 8 9 7 12 16 8 3 2 2 4 3 5 9 7 4 3 2 3 2 2 1 1 2 2 2 2 2 3 2 2 2 1 2 4 8 9 7 8 10 8 6 7 9 11 10 7 8 10 11 11 12 11 11 13 15 15 14 12 9 8 9 10
9 7 5 2 1 2 3 4 4 4 4 4 2 1 1 3 4 5 6 5 4 2 0 2 4 4 4 5 9 13 9 3 4 6 7 8 6 3 1 2 2 2 2 1 2 2 2 2 2 2 3 3 3 3 3 3 2 4 6 9 8 7 8 10 10 9 9 10 11 10 9 10 12 13 14 13 10 10 12 14 14 13 12 10 9 9 9
8 6 4 1 1 2 2 2 3 3 2 1 1 2 2 2 4 5 6 7 6 3 1 1 1 2 3 4 4 8 11 10 9 10 9 8 6 5 4 2 2 3 2 1 2 2 2 2 3 3 4 5 3 2 3 3 3 4 8 10 8 7 8 8 8 9 9 9 11 11 10 11 11 11 11 11 11 11 12 12 13 14 12 10 9 8 8
7 5 4 2 2 3 2 1 1 2 1 1 1 2 2 1 2 4 6 7 6 3 1 0 1 3 3 1 1 4 7 8 8 8 6 5 4 5 5 3 2 3 2 1 2 2 2 2 3 3 4 6 4 2 2 3 3 5 9 11 8 8 8 7 8 9 9 9 11 11 9 8 8 8 8 10 12 13 12 12 13 15 15 14 12 9 10
7 5 5 4 3 4 4 3 1 0 0 1 1 1 1 2 2 4 7 8 6 3 1 1 1 2 2 1 1 1 4 4 4 3 3 3 2 3 4 3 2 1 1 1 1 2 1 1 3 3 4 5 4 1 1 4 5 7 10 10 8 8 9 8 9 10 9 10 12 11 9 8 10 10 10 12 13 13 13 13 14 16 17 16 14 12 12
7 7 6 5 5 5 4 4 2 1 2 2 2 3 3 3 3 6 8 7 5 3 2 2 1 1 1 1 2 1 2 2 2 3 2 2 1 2 3 2 1 1 2 1 1 1 1 1 2 3 3 3 3 1 2 4 6 8 10 9 7 8 9 9 9 9 11 11 11 10 10 12 13 13 12 12 13 13 14 14 14 14 14 13 12 12 11
8 8 6 6 6 6 5 4 3 2 2 3 4 4 3 3 5 7 8 7 3 1 1 1 1 2 2 1 1 1 1 1 1 1 1 2 0 2 1 2 1 2 2 1 1 0 1 1 1 2 2 2 2 1 2 5 8 8 8 8 7 8 8 8 8 9 12 13 11 10 12 14 14 12 11 11 12 13 14 14 13 11 10 11 12 11 8
9 7 5 5 5 6 5 4 4 3 3 4 5 3 3 5 6 7 6 5 1 2 1 0 0 0 1 2 2 1 1 1 1 1 1 1 2 2 1 1 2 1 1 0 1 1 1 1 1 1 2 2 2 2 3 7 10 10 8 8 9 9 9 9 10 10 11 13 12 11 12 14 14 12 11 11 12 12 13 13 13 11 10 11 13 11 8
8 5 3 3 4 5 4 4 4 3 2 3 3 2 5 6 6 5 4 4 3 1 1 0 0 1 2 1 2 2 2 1 0 0 0 0 2 1 2 2 1 1 1 1 1 0 1 1 1 1 2 2 3 3 4 7 10 11 10 9 9 9 9 11 12 12 13 14 14 12 13 14 14 12 11 11 11 12 12 13 13 12 11 12 13 11 8
7 4 1 2 3 2 2 2 3 2 2 1 1 4 5 5 3 3 2 3 3 3 2 1 2 3 2 2 2 1 1 1 0 1 0 1 1 0 1 2 1 1 1 2 0 1 1 1 1 1 2 2 2 4 5 6 7 9 9 9 9 8 8 10 12 14 14 13 12 12 12 13 14 13 12 12 12 12 13 12 12 11 11 12 12 10 8
4 2 1 2 2 1 1 1 1 1 1 2 3 3 3 1 1 1 1 0 1 2 1 1 2 2 1 1 1 2 2 1 1 1 0 1 1 0 1 1 1 1 1 2 1 2 0 2 2 1 2 3 3 5 6 5 5 4 6 8 8 7 7 8 11 14 14 13 12 13 14 14 15 14 14 14 14 14 13 12 11 10 11 11 11 9 8
2 1 0 1 1 0 1 2 4 4 2 1 1 0 1 1 2 1 2 0 0 1 1 1 3 3 3 2 3 2 2 2 2 1 1 1 0 0 0 0 1 1 1 1 1 2 1 1 1 1 2 4 4 5 6 6 4 3 4 6 7 7 7 7 9 12 13 12 12 14 13 14 15 15 14 14 14 14 13 12 11 9 8 9 9 8 8
2 1 0 0 0 1 3 6 6 3 0 1 0 1 0 1 0 1 0 1 0 1 1 2 2 2 4 3 2 2 2 2 1 1 2 1 1 1 1 0 1 1 2 1 2 2 1 1 1 1 1 3 4 6 6 6 5 4 4 6 8 10 10 9 10 12 13 12 12 13 13 13 14 14 14 14 14 14 13 13 12 9 6 6 8 8 9
1 0 1 1 2 5 6 6 3 0 1 1 1 1 1 1 1 0 1 1 2 3 2 1 1 2 1 3 3 2 2 2 2 2 1 0 1 0 1 0 0 2 0 2 2 1 2 2 1 0 2 3 4 5 6 6 5 5 5 6 8 10 11 11 12 14 14 12 11 12 14 16 16 15 15 15 14 12 12 12 13 14 11 5 8 10 11
1 2 3 4 6 6 5 2 1 1 1 1 1 1 1 1 1 1 1 0 1 2 2 1 1 2 2 3 3 2 1 1 1 2 2 1 2 1 1 0 1 2 1 3 1 3 2 1 1 1 2 3 4 4 4 5 4 3 5 6 7 8 8 8 8 12 14 13 11 12 14 16 16 16 17 18 17 15 15 15 15 18 18 13 6 8 11
5 6 4 3 3 3 1 1 1 1 1 2 2 2 2 2 2 1 2 2 1 1 2 1 0 1 1 1 1 0 0 1 1 1 1 1 1 1 1 1 1 1 1 0 3 3 1 1 2 2 2 3 4 4 4 4 4 3 5 5 4 5 7 6 6 8 11 12 12 14 15 16 17 18 20 22 22 20 20 21 20 20 21 19 15 11 7
7 5 2 1 1 1 1 1 1 1 1 1 1 0 2 3 2 1 2 2 2 1 2 2 1 1 2 1 1 0 0 0 1 1 0 1 0 1 1 1 1 1 0 2 2 1 1 1 1 2 2 3 4 4 4 4 3 3 4 5 3 3 5 5 5 5 7 9 12 14 15 16 18 19 21 23 23 21 20 23 26 26 23 22 21 21 17
4 1 2 2 2 1 1 1 1 1 0 1 1 2 2 3 3 3 3 2 2 2 3 2 1 2 3 1 1 1 0 1 1 0 0 0 1 0 1 2 1 1 1 1 1 1 0 0 2 3 3 3 4 5 4 4 3 3 4 4 3 3 4 4 4 4 5 9 12 14 14 16 17 18 20 23 25 23 22 24 27 27 25 23 23 24 24
1 0 3 2 1 1 1 1 1 0 1 2 3 4 4 4 5 4 3 2 2 3 5 3 2 2 2 1 0 0 0 1 1 1 1 1 0 1 1 1 2 2 2 1 2 2 1 2 3 3 4 4 5 5 4 4 4 3 3 3 4 4 4 4 5 5 7 11 13 14 14 16 17 17 19 21 24 25 25 26 29 30 28 24 22 23 25
0 1 3 2 1 1 0 1 2 2 3 3 4 4 4 4 3 4 3 3 3 4 4 2 1 1 1 1 0 0 1 1 0 1 0 2 0 1 1 2 2 1 1 2 2 1 3 3 3 3 4 4 5 5 5 5 5 5 4 4 4 5 4 5 5 6 9 12 13 13 14 16 17 17 18 19 21 24 26 26 29 32 31 27 25 26 28
1 1 1 1 1 1 2 2 2 2 3 3 3 3 2 2 3 4 4 3 2 2 2 1 1 1 1 1 1 1 1 1 0 1 1 1 1 1 2 2 1 1 0 1 2 3 3 3 3 4 4 4 5 5 4 5 5 5 5 5 6 6 5 5 5 6 10 11 11 11 13 15 16 17 16 16 18 21 24 25 26 28 30 31 31 31 30
1 1 1 1 1 2 3 1 0 2 4 3 2 3 2 2 4 5 4 2 2 3 2 1 2 1 1 1 2 2 1 1 1 1 2 2 2 0 1 1 1 2 1 2 3 3 3 3 3 3 4 4 5 4 4 4 5 5 5 6 7 7 7 7 6 6 8 10 10 11 12 14 15 15 15 15 15 17 21 24 25 25 27 30 31 30 29
1 1 1 1 1 2 2 1 1 3 5 4 3 3 3 3 4 5 3 1 1 2 2 2 2 1 1 1 2 2 1 1 1 2 2 1 0 1 1 0 2 2 2 3 4 4 3 3 3 3 4 4 4 4 4 4 5 5 5 7 8 9 9 9 9 8 7 7 9 10 12 12 13 14 14 14 14 15 19 24 26 26 26 27 28 29 29
1 0 1 2 3 3 2 1 2 4 5 4 4 4 3 2 3 4 2 1 2 3 3 2 1 2 2 2 1 1 1 0 2 2 0 1 1 1 1 1 3 3 3 3 4 3 3 3 3 3 3 4 4 3 4 4 5 6 7 9 10 11 11 12 13 12 10 8 7 8 10 12 12 14 15 16 16 16 17 20 24 26 26 27 27 27 28
0 1 2 2 3 4 3 2 2 4 5 5 5 3 3 2 4 4 2 3 3 2 1 0 1 2 2 1 0 0 1 1 1 1 1 1 1 2 3 3 4 3 3 3 4 3 2 3 3 3 4 4 3 3 4 5 6 7 9 10 11 11 11 11 12 14 14 11 8 7 9 10 12 14 16 17 16 13 11 14 20 23 25 26 28 28 28
Wind_Direction
341 345 348 347 349 350 351 354 356 354 355 355 351 346 355 38 307 323 356 358 4 68 69 18 28 37 332 325 294 277 307 353 341 346 21 38 40 42 91 138 86 117 195 220 244 10 274 216 193 208 257 247 268 350 357 353 341 336 314 297 308 301 202 279 288 282 274 269 268 272 276 258 231 270 291 282 260 220 206 201 173 184 210 189 223 264 263
341 344 346 346 349 350 350 353 354 354 357 354 349 348 44 355 278 291 7 16 37 78 56 12 22 360 341 340 335 321 333 7 359 0 17 5 338 17 13 277 105 76 343 247 199 159 92 221 211 213 240 222 75 350 323 332 340 330 311 320 343 337 265 113 6 340 292 276 257 246 9 15 356 307 306 315 321 311 272 167 137 207 207 177 190 246 251
340 342 343 346 348 349 349 353 352 351 353 353 353 350 301 330 266 238 4 27 45 72 74 36 31 359 352 344 343 343 341 11 6 357 20 5 330 318 1 357 82 53 0 327 252 190 156 208 244 228 222 247 288 274 273 312 316 300 299 303 302 295 265 175 113 154 204 224 200 170 336 334 321 307 305 317 342 337 302 217 179 226 217 175 184 235 239
340 341 342 344 347 348 349 352 351 348 349 350 353 351 300 345 33 302 342 26 46 76 75 41 32 8 5 349 343 351 338 342 358 358 21 9 348 338 8 13 43 31 11 359 316 292 203 210 264 262 257 265 242 211 226 287 296 295 305 314 305 271 251 216 197 205 221 244 262 236 266 296 296 304 307 303 307 313 305 242 209 209 192 186 216 237 247
340 340 341 344 347 346 345 346 346 345 347 349 350 355 84 39 37 356 342 355 30 51 42 31 21 346 353 331 333 353 341 328 344 354 5 3 351 339 38 42 48 18 360 354 302 289 257 250 267 260 261 258 246 250 246 263 280 289 317 342 337 278 268 236 215 232 250 266 278 273 272 278 278 285 292 292 295 298 278 250 240 176 163 223 237 235 254
339 338 339 343 345 341 339 341 342 343 345 349 354 8 92 28 63 36 297 310 17 19 341 2 358 324 320 320 339 352 348 344 353 348 344 357 356 351 19 25 20 352 339 326 282 291 300 279 265 266 273 274 288 288 243 243 267 285 340 345 333 273 279 250 222 251 261 260 265 268 264 260 260 264 271 280 289 285 260 252 252 218 215 237 226 192 231
337 337 338 338 338 338 339 342 344 344 345 350 3 35 21 15 44 317 283 299 335 272 292 327 343 332 334 353 357 347 339 345 355 336 318 330 2 40 355 328 335 332 323 291 257 272 288 283 272 276 284 273 280 293 268 257 258 77 350 326 304 268 271 247 241 276 275 267 261 254 243 243 253 256 261 276 285 274 253 247 249 248 253 255 224 215 231
334 337 337 334 336 338 339 345 348 345 347 357 14 45 28 27 11 329 313 290 266 240 262 318 350 337 327 324 347 333 325 333 337 318 295 291 315 20 339 317 320 320 312 281 246 247 253 270 269 271 288 279 254 248 250 219 161 146 311 307 289 270 267 273 298 291 281 272 250 229 225 231 241 260 297 321 320 299 249 237 256 267 266 267 255 240 246
334 337 336 334 336 338 340 348 350 343 348 2 8 333 299 265 275 294 297 302 307 283 241 7 328 311 287 268 342 335 319 319 319 307 276 260 289 323 319 312 312 310 300 277 263 261 257 263 263 260 267 262 240 235 224 169 162 193 197 235 282 271 291 332 15 324 288 261 220 255 263 226 214 296 351 346 345 1 27 39 19 344 275 294 301 268 271
336 336 334 333 335 339 342 344 340 337 345 353 335 305 333 304 283 248 242 303 320 324 268 233 295 298 281 312 331 327 297 300 311 310 282 202 247 274 295 302 304 300 291 275 266 271 272 270 269 265 259 252 244 245 238 207 187 186 185 204 250 252 271 310 24 281 277 256 277 304 287 195 199 313 7 349 342 7 28 36 22 1 331 22 328 268 290
336 333 332 333 335 338 337 331 328 332 337 338 320 292 302 312 298 251 240 278 262 146 214 244 279 312 308 314 321 311 297 303 309 309 307 281 272 276 287 293 292 280 270 265 272 287 284 273 267 259 252 251 246 242 239 230 218 205 187 188 233 243 243 262 326 229 264 283 308 296 216 177 186 142 58 8 346 6 19 36 25 12 15 22 331 307 324
331 329 331 334 335 335 330 324 326 326 320 319 306 287 294 306 299 264 221 269 261 142 228 251 250 277 295 305 305 297 297 303 306 308 304 296 296 302 297 286 282 269 270 286 301 304 297 283 270 258 248 245 242 238 236 232 223 210 192 186 212 238 240 247 228 215 272 304 312 203 178 169 155 127 48 12 1 356 355 32 35 20 14 8 351 335 330
330 331 334 336 336 334 330 325 321 314 308 307 295 287 297 308 296 246 174 245 258 199 261 280 266 265 278 287 288 294 298 296 299 304 297 286 292 301 296 255 248 272 291 302 307 308 306 297 287 277 262 247 242 238 230 224 217 204 192 194 207 226 239 249 237 231 278 310 283 184 162 82 88 88 24 8 15 352 342 24 36 19 10 6 353 337 331
333 335 337 339 337 332 326 322 318 312 306 301 292 288 295 299 289 267 159 234 251 233 253 281 282 274 277 279 285 298 303 298 296 296 285 273 279 282 275 258 274 287 298 303 307 323 332 311 307 303 286 261 266 244 217 210 208 198 193 197 204 216 228 233 234 233 231 277 291 250 146 45 23 46 10 350 334 323 321 357 38 18 9 0 346 337 338
335 336 339 340 336 330 326 325 323 318 312 302 291 285 288 291 282 271 256 230 273 277 225 236 293 317 306 301 304 307 305 303 305 298 284 269 263 263 262 280 295 300 301 301 326 5 341 305 311 309 292 260 277 259 191 184 188 186 192 197 202 212 218 200 199 252 295 291 292 305 150 165 206 316 317 310 298 294 287 257 42 17 6 355 344 340 342
337 339 341 339 336 334 334 331 324 320 318 311 298 289 290 290 268 246 234 205 249 276 235 227 265 303 300 300 303 299 298 306 314 313 304 293 289 288 291 303 309 311 312 338 36 28 310 300 301 292 277 264 280 279 205 163 150 163 187 195 198 208 213 216 254 276 313 295 258 255 166 148 6 323 309 306 308 299 260 201 55 12 359 351 348 348 348
339 342 343 340 339 338 334 329 324 321 320 315 305 294 294 295 269 241 228 195 193 255 268 228 214 265 285 293 301 296 283 290 303 313 313 311 314 311 317 326 325 325 340 357 10 7 304 293 289 289 277 268 283 290 287 140 127 145 175 186 194 205 206 218 237 243 252 246 252 307 161 110 341 324 313 310 307 287 188 157 34 2 351 347 350 353 351
340 344 344 340 340 338 331 326 326 326 326 324 316 299 293 298 282 243 225 200 215 258 275 229 199 237 275 279 298 306 297 294 301 294 290 298 305 303 316 334 332 333 1 1 349 340 317 295 293 300 293 287 300 309 320 3 97 123 148 162 178 192 198 214 220 229 242 229 225 330 107 22 338 327 320 313 296 214 112 69 18 348 342 345 353 355 351
343 344 342 341 339 336 333 331 330 332 336 335 329 315 306 309 286 240 223 204 201 250 287 253 208 244 283 287 283 287 286 285 291 305 307 303 292 290 297 329 338 331 351 351 333 325 318 309 305 300 303 320 330 329 334 3 47 68 128 144 140 158 199 224 220 239 262 221 190 266 149 19 348 335 327 330 336 114 62 28 33 360 346 345 352 355 353
345 344 342 343 341 336 333 332 330 334 339 338 334 333 332 327 298 247 228 223 224 260 281 275 251 255 263 235 232 260 288 288 279 295 297 276 303 326 338 11 345 330 333 340 343 343 326 320 318 312 322 328 330 339 343 8 41 29 36 97 52 6 343 39 6 334 324 355 58 66 119 6 352 347 348 9 29 46 354 2 19 7 353 345 345 353 356
343 343 343 345 342 335 331 327 325 328 333 333 334 342 345 345 345 305 245 239 246 279 284 279 265 262 262 256 250 247 241 236 234 230 245 263 294 348 3 303 303 326 339 333 336 332 316 317 319 316 317 314 318 339 339 337 23 16 11 52 45 14 3 16 20 9 2 33 52 55 46 351 354 1 32 48 42 25 3 7 7 0 354 347 341 344 349
341 343 345 346 339 333 329 322 319 320 323 323 321 318 314 305 329 2 330 240 235 252 269 278 282 281 279 278 271 261 252 248 246 238 230 275 298 238 210 302 290 252 257 336 323 315 306 311 321 319 315 322 325 328 332 342 23 9 1 22 52 21 352 326 337 8 354 17 78 82 51 352 350 359 43 57 42 21 12 12 6 354 350 345 338 336 339
343 343 344 343 337 333 328 319 316 316 308 300 290 268 263 277 292 341 348 258 255 265 270 280 292 292 289 293 298 293 275 256 248 239 222 211 295 266 214 234 266 237 145 132 272 290 295 290 309 317 319 332 331 319 331 10 26 9 5 23 44 20 359 340 327 333 319 187 108 68 8 343 327 317 42 52 34 14 5 1 359 350 341 337 335 330 330
344 343 341 341 337 332 325 316 317 315 294 279 272 267 277 289 284 294 259 251 300 301 289 304 316 290 292 311 315 308 292 263 250 241 221 204 208 317 256 195 203 288 319 275 243 246 285 284 267 313 333 332 332 330 339 13 19 4 2 10 9 9 9 3 348 340 327 107 71 20 340 318 298 258 94 44 16 1 356 348 340 335 331 328 326 324 324
342 341 339 337 335 332 328 325 329 322 293 253 235 236 234 218 226 193 140 43 20 41 331 322 283 260 313 324 316 304 292 275 265 242 217 208 207 219 270 311 322 322 308 291 239 212 285 304 276 309 336 339 349 347 343 359 8 2 13 22 356 344 355 356 347 344 329 314 18 360 336 324 1 91 79 27 359 345 338 331 323 318 317 314 313 317 320
339 337 337 336 335 337 348 1 1 351 337 206 207 212 200 172 166 159 143 86 44 76 358 295 265 301 339 344 342 339 318 271 251 232 220 220 221 226 254 299 312 313 309 296 196 193 231 297 312 315 340 351 355 351 340 338 344 359 30 24 348 324 340 344 332 329 318 316 355 355 351 18 50 33 354 341 337 329 323 318 313 308 305 304 305 308 310
338 337 338 341 343 359 30 39 29 21 32 93 178 194 188 183 185 180 159 129 95 34 339 271 272 315 330 337 350 354 338 259 245 235 223 229 234 235 248 277 295 310 321 315 285 169 121 47 339 320 336 334 326 332 321 313 337 28 32 12 356 346 351 345 331 335 348 343 344 346 338 325 335 333 322 314 311 310 308 304 301 299 298 298 299 299 298
340 338 343 351 12 56 62 61 60 59 63 74 106 170 187 190 197 201 194 175 157 162 210 236 278 309 316 323 352 0 353 246 224 191 189 227 245 234 241 272 290 309 328 329 331 356 16 3 332 318 338 335 324 331 321 304 348 46 21 4 4 359 347 341 338 330 320 318 323 325 313 298 299 301 297 292 291 293 292 290 289 288 288 289 288 290 292
339 338 344 1 79 106 85 78 88 94 84 73 61 12 255 221 209 203 199 198 197 193 204 293 291 310 313 308 341 5 22 67 109 98 81 62 63 93 52 353 330 313 320 337 353 352 352 357 343 328 341 342 326 329 342 345 16 33 13 359 355 341 327 330 330 316 304 308 316 315 308 299 294 291 288 286 282 277 277 277 278 278 279 280 276 275 278
335 331 327 327 165 152 127 99 101 106 105 100 66 29 2 278 227 209 197 195 197 191 78 27 283 310 311 292 334 28 49 68 80 77 70 69 72 62 47 36 352 354 13 21 1 359 3 358 346 329 331 340 346 357 358 1 27 27 4 354 346 333 324 323 322 315 307 308 311 310 302 294 288 284 280 277 273 271 268 268 270 272 274 276 274 269 267
326 314 302 281 212 190 182 171 117 86 82 143 141 90 56 345 229 204 189 187 187 175 94 105 272 312 319 295 87 64 65 71 72 67 59 63 66 56 60 69 28 11 31 35 348 359 15 344 332 324 329 344 4 29 352 5 26 8 350 347 343 335 328 323 323 322 315 312 313 310 300 294 296 296 290 284 281 274 266 263 265 268 271 274 275 271 264
317 297 279 260 232 209 200 208 228 251 218 230 218 206 239 267 234 190 179 178 176 161 103 51 342 331 322 308 311 115 108 90 70 57 40 20 22 44 55 65 56 13 41 68 15 357 356 326 320 316 317 337 355 1 358 21 18 349 337 340 341 335 328 325 330 332 328 327 326 323 321 327 329 323 312 303 297 287 275 265 261 261 265 269 271 269 263
313 295 273 249 225 210 213 227 239 236 229 246 271 272 263 251 200 177 174 174 175 171 148 106 47 293 277 308 298 217 148 92 33 32 21 343 337 33 25 31 91 18 5 54 110 311 305 288 306 310 311 334 1 6 10 12 357 336 332 336 338 335 330 325 329 335 334 332 331 329 331 331 326 320 313 306 303 299 291 281 267 258 258 261 260 259 261
317 301 276 246 222 211 216 223 217 219 245 259 265 265 243 203 174 166 170 173 165 140 122 109 91 281 295 359 328 238 166 96 46 40 351 308 3 73 9 326 356 15 357 44 117 77 308 286 295 315 316 328 353 28 7 347 336 332 334 335 334 334 331 329 334 339 336 334 331 330 330 327 323 324 325 318 311 308 305 298 283 259 247 253 255 251 252
330 312 279 248 222 211 215 229 239 248 262 266 264 250 205 187 170 159 172 185 145 48 357 172 109 311 339 359 326 261 151 104 98 169 193 289 1 59 106 351 359 352 297 9 79 61 338 324 351 334 313 315 349 21 356 334 329 329 337 340 339 341 342 341 340 337 333 333 333 332 333 333 334 335 333 325 318 312 308 304 293 267 243 249 258 253 245
344 333 290 227 201 201 214 232 243 251 271 285 272 198 175 179 174 170 199 224 219 189 185 211 268 193 155 177 264 235 170 152 331 36 109 342 350 16 84 83 39 292 310 24 44 356 319 333 44 350 329 348 11 351 325 324 328 333 340 342 340 341 341 339 336 336 335 336 336 335 335 337 339 340 337 330 323 315 308 304 295 275 249 244 254 256 246
357 13 60 160 167 176 219 236 238 257 290 320 124 150 164 176 185 204 234 243 230 211 147 105 251 228 176 184 247 222 176 209 293 19 3 201 184 352 52 84 129 226 353 12 33 223 307 351 63 35 337 331 323 304 303 319 329 330 336 339 337 337 338 335 335 338 340 339 338 340 342 343 344 345 342 337 332 324 314 303 292 276 256 246 249 253 245
10 46 96 128 119 91 322 272 234 107 114 117 122 147 178 170 125 274 304 21 222 224 127 117 250 244 144 142 238 200 183 209 33 52 244 213 129 5 357 85 161 179 352 322 239 186 49 16 50 53 304 296 303 305 312 323 321 319 332 335 331 332 336 334 336 342 345 346 345 345 346 347 348 349 348 343 339 332 319 303 287 273 259 248 246 249 247
345 335 169 118 117 141 239 149 123 119 126 120 86 187 249 60 57 333 307 5 176 231 105 187 239 212 158 189 266 254 186 133 63 19 246 232 93 169 206 232 202 145 61 335 227 168 98 10 34 47 321 309 314 318 321 321 322 336 342 328 320 329 337 335 338 342 342 341 340 341 342 344 345 346 346 344 340 336 329 317 303 284 259 243 240 244 246
278 261 221 103 128 165 150 136 128 126 206 300 38 98 73 44 82 226 283 21 355 238 195 200 234 214 169 172 238 265 204 152 148 206 214 205 206 164 117 123 206 109 67 292 227 169 120 100 87 47 312 288 297 309 315 319 331 348 338 316 319 335 341 337 335 336 333 330 332 336 340 342 344 345 346 345 343 340 336 332 326 319 289 236 227 233 236
261 257 218 161 128 131 137 137 130 349 298 297 66 59 3 322 280 196 70 29 306 264 228 140 6 310 249 170 178 224 227 188 166 142 122 244 275 117 104 200 174 88 84 248 221 119 92 106 117 215 260 261 283 301 309 316 331 340 324 310 321 336 337 331 331 334 336 335 335 339 342 344 346 350 351 348 347 342 336 338 344 345 338 288 236 237 238
155 120 113 117 124 129 131 115 35 4 33 51 1 327 295 311 346 351 2 266 264 274 269 152 155 233 225 177 169 203 223 183 115 88 86 280 269 141 131 238 46 72 234 237 154 75 70 114 147 215 253 270 284 292 297 303 310 310 295 293 307 325 327 323 327 336 340 339 334 336 342 344 348 354 355 353 355 356 352 352 355 351 348 343 309 261 249
167 154 130 99 106 125 113 18 12 55 77 56 26 349 330 335 348 335 301 285 289 294 278 259 244 281 244 189 169 255 305 134 109 88 98 244 256 102 84 18 44 130 226 227 69 66 76 147 177 233 270 292 295 293 292 290 286 277 268 267 285 320 325 323 329 337 342 344 341 342 345 347 351 358 360 359 3 6 3 2 3 359 357 0 4 352 314
145 149 129 57 46 86 57 333 323 48 37 25 67 55 325 318 312 292 287 289 284 267 266 270 305 311 271 235 158 105 326 84 81 76 94 251 267 82 92 250 236 218 7 40 58 85 149 154 201 259 288 305 304 304 301 293 289 282 268 263 280 327 325 324 333 339 345 354 356 356 355 354 354 359 2 3 7 9 8 7 7 6 6 10 13 10 6
133 97 45 31 352 346 36 352 348 33 20 269 195 175 210 267 269 254 241 222 212 264 297 292 218 214 248 267 111 142 221 52 47 353 221 132 24 332 231 232 230 70 60 27 11 29 31 304 290 299 307 308 307 308 303 292 291 282 261 263 293 320 313 319 337 344 349 358 3 5 6 3 360 0 3 5 7 9 12 13 12 10 13 18 17 12 13
169 95 97 81 315 298 91 35 333 332 223 227 203 187 198 219 231 239 236 206 210 277 296 290 186 178 229 269 265 194 101 83 68 269 163 106 67 273 215 103 41 40 46 16 8 3 291 262 271 287 298 304 306 307 308 311 317 311 283 272 288 306 320 337 349 353 357 2 6 8 10 9 7 5 5 6 8 9 12 16 19 19 19 20 18 14 17
244 85 101 97 303 323 77 221 229 213 208 213 207 204 210 218 238 258 252 217 222 264 284 278 166 167 226 223 161 339 24 91 110 288 23 88 338 300 30 61 42 18 31 21 359 298 260 262 275 286 299 310 313 313 322 332 331 327 322 309 300 308 328 344 351 357 1 4 7 9 10 11 11 10 8 9 12 11 10 14 21 25 26 24 21 22 26
190 92 107 158 219 221 227 237 244 251 243 231 226 233 231 237 279 284 267 234 237 285 298 302 87 29 318 342 67 19 335 44 38 302 331 66 53 348 16 37 16 316 187 231 257 252 253 264 274 284 299 311 312 315 324 327 321 328 340 333 316 315 324 328 339 2 10 9 7 8 10 11 12 12 12 12 15 15 15 15 20 27 30 30 27 26 28
151 114 123 161 193 217 224 214 332 288 267 265 294 302 271 236 257 269 267 264 291 294 277 183 101 80 319 330 38 37 347 350 39 349 5 37 58 49 27 9 315 293 250 232 244 251 250 252 262 282 302 308 309 314 322 322 321 333 346 340 332 335 339 332 331 355 18 20 12 7 10 12 12 13 14 14 14 17 22 24 24 27 32 34 33 30 27
91 125 178 206 245 273 282 19 31 287 288 306 311 281 238 227 256 263 252 240 313 342 4 19 42 67 39 7 33 28 321 285 103 77 43 33 175 161 98 117 247 250 244 245 254 263 267 263 266 284 296 298 303 313 323 327 327 332 342 351 356 1 5 1 352 350 2 15 16 14 15 14 13 13 15 16 15 20 28 32 32 31 32 35 37 36 33
12 4 242 215 204 211 213 196 234 258 271 279 260 234 202 206 251 247 204 119 49 33 28 359 351 35 38 26 22 347 292 345 70 68 21 234 188 129 123 215 233 230 234 254 266 272 275 272 272 281 289 294 302 317 328 332 334 340 352 2 6 9 16 19 13 3 354 353 6 18 19 16 17 22 24 22 21 25 30 33 33 33 33 35 37 39 38
126 269 281 264 217 186 171 179 236 240 241 247 242 214 169 195 233 223 140 88 64 48 44 67 76 59 42 11 317 332 342 22 43 25 265 244 192 152 178 216 233 225 226 255 276 286 275 266 266 272 280 285 302 328 336 339 348 356 2 6 8 12 18 22 21 14 6 359 358 11 16 14 19 28 29 25 22 24 27 29 31 34 36 37 38 39 40